Wind_Speed
14 17 20 18 17 15 12 14 15 16 15 17 20 21 19 18 17 19 19 19 22 22 23 22 20 21 22 22 23 23 22 20 18 16 18 15 15 14 15 14 15 13 14
19 19 21 18 17 15 13 14 14 14 14 15 18 19 20 19 17 18 19 19 22 22 22 22 20 21 22 23 23 22 21 19 18 16 15 15 14 14 13 13 15 13 13
21 19 21 18 17 16 15 15 13 13 13 13 15 16 18 19 18 19 20 20 21 21 22 24 24 23 24 22 22 19 18 17 16 16 16 12 11 12 12 12 13 13 12
19 18 18 19 17 17 16 16 13 12 12 13 14 15 15 16 17 19 20 20 21 22 22 23 25 23 20 19 17 15 13 11 11 12 10 10 9 11 11 11 11 11 11
18 16 18 21 18 18 16 15 13 13 12 12 13 14 15 15 17 18 19 20 22 23 23 24 22 20 18 17 16 15 13 11 10 8 7 8 8 8 10 10 10 9 10
18 17 19 21 19 18 16 15 14 14 13 12 12 12 14 15 17 19 21 21 22 21 22 21 19 17 16 15 15 15 14 12 10 8 7 7 6 9 10 9 9 9 8
18 18 19 20 20 18 16 15 15 14 14 14 14 14 13 14 17 18 20 20 20 20 19 18 17 15 14 14 14 14 15 15 11 9 9 8 7 9 10 10 9 9 8
20 19 18 19 18 16 16 16 16 14 14 15 15 15 15 16 17 18 19 19 18 17 16 15 14 13 13 13 12 12 14 16 13 9 8 8 9 10 10 9 9 8 7
20 20 18 16 16 15 15 16 14 14 14 14 14 14 15 16 17 18 17 16 15 14 14 13 12 11 11 12 13 12 12 14 12 11 6 7 8 9 8 7 7 7 7
21 19 19 18 15 14 15 15 15 14 14 14 14 15 15 16 16 16 15 13 12 11 11 10 9 10 11 11 11 12 11 11 10 10 9 7 8 7 6 5 6 6 6
22 20 18 20 17 16 16 15 15 14 14 14 13 14 14 13 14 13 12 11 9 9 8 8 8 8 9 9 9 9 10 11 11 12 12 10 9 8 7 8 9 11 13
22 21 17 21 20 18 13 15 15 15 13 13 12 13 12 13 12 10 10 8 8 8 8 7 7 7 7 8 9 9 10 12 13 14 13 10 10 11 12 14 16 19 16
28 23 18 23 20 19 15 14 12 14 13 12 12 11 11 12 11 9 8 8 7 7 6 5 6 6 6 7 8 9 11 12 15 18 18 16 18 16 18 19 20 22 21
28 25 22 25 22 20 16 16 13 11 11 10 8 8 9 9 9 8 7 7 6 5 5 6 8 10 10 10 10 12 13 14 15 18 23 22 19 20 22 22 21 20 20
29 26 25 28 23 19 18 16 15 12 9 8 7 8 9 8 8 8 7 6 6 7 7 9 10 10 12 11 12 13 15 17 17 17 22 25 23 23 21 19 17 17 16
30 28 26 28 27 23 16 17 16 14 11 8 7 7 8 6 8 9 9 9 8 9 9 10 9 10 11 12 13 14 15 16 16 16 17 21 24 24 22 20 15 14 14
29 27 29 28 27 24 21 19 16 14 11 9 8 7 7 7 8 10 11 11 10 9 9 9 9 11 12 14 16 16 16 16 16 16 14 15 17 21 21 19 18 15 15
25 28 27 28 28 25 20 20 19 16 13 11 10 9 8 8 9 11 11 11 10 9 9 9 10 12 14 15 16 16 16 16 16 15 14 12 11 11 11 12 15 16 15
24 27 26 27 29 26 23 20 19 17 16 13 12 11 11 11 11 11 11 10 9 9 9 10 11 12 16 17 18 16 15 14 14 13 14 14 13 11 10 9 9 13 15
22 23 26 25 28 27 24 21 19 18 17 15 14 13 13 13 12 12 10 9 9 10 11 12 13 15 17 20 20 18 15 13 12 12 12 12 12 12 11 10 9 10 10
23 22 24 27 29 30 26 23 21 20 18 17 15 14 13 12 11 10 9 8 8 9 10 14 17 20 19 22 19 17 15 14 12 11 10 10 11 11 11 11 10 8 8
28 28 28 29 32 30 27 25 21 23 18 18 17 15 13 12 11 10 9 8 9 9 11 17 20 20 17 15 9 11 4 5 10 9 9 10 11 10 12 12 11 11 10
26 30 34 36 37 33 29 28 22 24 19 17 17 16 15 13 11 9 8 8 9 10 11 16 19 16 17 12 12 3 4 3 9 4 7 7 9 10 11 12 12 13 12
27 27 32 33 34 34 33 31 31 27 21 16 20 18 16 13 11 10 9 9 10 11 11 15 19 16 17 15 12 3 4 10 4 5 4 4 6 8 11 12 12 13 14
30 31 32 32 33 34 36 35 33 23 16 19 19 19 15 14 13 11 10 9 9 11 13 14 19 19 15 13 11 5 4 4 6 4 5 7 5 5 8 10 12 12 14
27 29 33 35 34 36 37 36 34 27 22 19 21 19 17 16 14 13 12 10 10 11 12 13 18 20 17 12 11 7 4 4 7 5 4 11 6 3 2 6 10 13 13
Wind_Direction
169 166 172 171 162 153 140 128 118 114 117 115 112 111 109 106 111 117 117 123 118 112 108 112 104 102 104 104 104 103 96 94 93 95 96 96 96 96 94 98 86 90 92
161 164 169 171 165 158 147 135 126 124 124 122 115 112 114 111 114 119 125 119 113 109 107 111 105 100 103 99 101 98 94 95 93 97 98 83 88 86 89 90 95 91 89
152 161 167 172 165 157 148 141 132 127 129 130 119 113 113 118 113 112 113 112 109 110 109 108 105 105 103 100 93 91 89 85 85 88 99 94 92 91 91 92 88 86 83
148 160 164 173 165 155 149 144 136 131 129 128 124 117 109 109 109 110 110 115 116 113 110 110 110 107 103 96 91 86 82 83 84 84 90 95 95 94 93 87 80 71 71
150 161 166 171 164 153 150 144 140 137 133 128 122 122 119 115 121 118 117 114 114 114 114 114 112 106 100 91 81 75 74 76 81 92 100 95 102 99 84 75 59 58 68
154 161 166 168 163 156 152 145 144 138 134 135 127 124 120 118 123 122 120 116 115 115 116 111 107 100 91 82 76 69 69 73 86 93 98 96 102 85 80 72 71 63 53
151 156 161 166 162 159 154 146 145 139 134 134 134 129 124 117 123 123 122 120 118 114 112 108 102 97 90 79 73 70 72 74 86 96 103 94 93 83 73 62 58 56 53
147 154 159 166 164 162 155 148 145 140 135 134 132 130 127 124 126 123 121 118 115 113 110 105 100 93 84 77 73 76 79 75 78 105 109 97 90 79 72 62 54 47 45
153 154 157 160 166 164 155 148 145 138 131 129 127 128 128 127 128 126 125 124 121 119 115 111 103 96 87 79 81 85 87 79 76 81 104 108 93 88 79 61 51 43 42
161 162 160 162 161 162 157 151 144 137 131 128 127 127 127 128 130 130 130 129 125 119 111 105 102 95 88 81 79 83 88 84 72 69 71 102 108 103 82 66 56 51 64
163 169 167 167 165 165 158 151 145 139 135 132 129 128 127 123 126 128 130 129 124 115 110 106 100 95 89 84 82 83 86 79 73 73 79 102 115 113 100 86 82 89 96
166 173 174 172 168 165 159 155 151 146 140 136 133 128 123 125 126 125 128 126 122 115 109 100 93 92 88 90 91 90 90 88 80 86 95 109 110 104 97 91 92 91 90
172 170 178 176 173 168 163 161 156 151 145 141 138 133 131 129 127 125 125 126 126 124 112 94 95 101 107 100 93 90 94 90 90 87 94 91 97 92 96 99 95 87 81
177 175 177 175 177 176 167 166 165 159 153 150 154 157 154 148 146 141 136 139 142 143 131 120 108 111 112 105 101 105 100 99 95 93 99 95 87 96 100 91 86 83 78
175 178 179 174 178 179 174 171 170 167 161 159 157 162 170 174 175 167 168 156 151 153 144 134 122 117 105 105 103 105 106 106 98 98 102 107 102 104 97 88 85 82 74
175 179 178 176 178 178 179 175 174 175 174 171 162 158 163 175 189 187 177 158 146 139 138 138 134 122 104 104 105 104 100 100 98 96 93 102 109 101 90 83 82 79 70
178 176 178 176 178 180 177 177 177 177 180 185 179 170 171 163 167 168 166 160 152 150 150 149 138 126 116 108 104 99 96 94 94 94 94 92 89 104 94 80 78 74 67
180 177 177 176 179 180 180 178 181 184 184 184 187 188 184 183 177 170 169 170 171 168 162 156 144 131 117 113 108 100 96 96 96 93 93 92 93 86 76 79 76 70 65
192 176 177 179 178 180 181 182 186 188 189 191 194 200 201 199 197 190 185 186 180 172 165 161 147 136 126 117 109 102 96 96 92 91 86 83 83 81 78 74 82 78 65
193 185 181 178 179 181 179 179 182 185 188 194 192 194 197 199 200 200 196 193 186 175 168 165 154 133 131 125 111 96 91 89 91 89 85 80 74 73 70 72 64 60 67
185 185 185 184 182 180 177 175 179 183 185 185 188 192 194 193 197 198 197 192 185 178 173 166 152 141 134 133 112 94 81 77 83 85 85 84 75 72 71 62 59 55 42
184 187 190 191 186 186 187 186 186 186 186 185 187 188 194 194 194 197 201 200 196 186 172 167 160 148 150 161 142 130 147 103 68 69 79 81 77 72 65 61 59 55 47
195 188 190 197 193 193 192 188 184 180 178 178 180 184 190 193 193 194 204 201 190 187 180 180 177 173 165 181 171 152 158 158 143 98 80 90 81 71 65 54 50 46 43
196 200 194 195 195 197 198 191 190 185 179 192 184 187 188 191 195 195 198 201 194 186 187 186 187 183 177 176 177 179 153 141 166 158 143 106 95 81 66 53 42 34 33
191 193 193 196 198 201 201 202 197 194 189 182 178 178 186 188 192 193 196 196 195 188 192 196 192 191 183 181 182 157 139 129 135 146 156 157 129 95 67 50 40 29 23
196 191 195 198 202 204 204 203 204 197 190 173 177 179 181 187 185 190 191 190 188 186 185 185 191 194 191 194 194 198 185 189 182 163 132 158 156 140 80 47 30 22 13
Height
800 803 806 809 812 814 815 815 816 817 818 818 818 819 820 820 821 822 823 825 826 828 829 831 833 835 836 835 836 837 837 838 840 841 841 842 842 844 844 846 846 847 846
797 803 807 809 812 814 815 816 818 819 820 820 821 821 822 824 825 826 827 827 829 831 832 833 836 836 837 838 839 839 840 841 842 842 843 844 845 846 847 848 848 848 848
799 804 807 810 813 815 816 818 819 820 822 823 823 824 824 826 827 828 829 830 831 833 835 836 837 840 841 842 841 842 842 843 844 844 845 848 848 848 849 850 850 850 851
801 806 808 811 813 815 817 819 820 822 823 824 825 826 827 828 830 830 832 833 834 836 837 839 841 842 843 844 844 844 844 844 845 846 849 849 851 850 851 852 853 854 855
802 807 810 811 814 816 818 820 822 823 825 826 827 828 829 831 832 833 835 836 837 838 840 842 843 845 845 845 845 845 845 845 846 848 850 850 852 851 853 855 856 856 856
802 807 810 813 815 817 819 820 823 824 826 828 829 830 832 833 834 835 837 839 840 842 843 844 845 846 846 846 846 846 846 847 848 850 851 852 852 855 855 856 856 857 857
802 807 811 814 816 818 819 821 824 825 826 828 830 831 833 835 836 838 840 841 843 844 845 846 846 847 847 847 848 848 848 849 849 851 852 852 856 856 856 856 856 856 857
803 808 812 815 818 820 821 822 824 826 827 829 830 832 834 836 838 841 842 844 845 847 847 848 848 849 849 849 850 850 850 850 851 852 853 855 855 856 857 857 857 857 857
805 809 813 817 819 821 823 824 825 827 829 830 832 834 835 837 840 842 844 846 847 848 849 849 850 850 851 851 851 851 851 851 852 852 853 855 855 856 857 857 857 857 857
806 809 813 817 820 823 824 825 827 829 831 832 834 835 837 839 842 843 845 847 849 849 850 850 851 852 852 853 853 853 853 853 854 854 854 854 855 856 857 857 858 857 857
806 810 812 816 820 824 825 826 828 830 832 834 835 837 838 840 842 845 846 848 850 850 851 851 852 852 853 854 854 854 854 855 855 856 856 856 856 857 857 857 857 857 857
803 808 811 815 819 823 827 828 829 831 833 835 837 839 840 842 843 845 847 849 850 851 852 852 853 853 854 854 854 854 855 856 857 858 859 857 856 856 858 858 859 859 859
800 804 809 813 818 822 826 829 831 833 834 836 838 840 842 843 845 847 849 850 851 852 853 853 854 854 854 854 855 855 856 857 858 859 860 859 859 859 860 860 860 860 861
798 802 806 811 817 821 824 828 832 834 836 837 839 841 842 844 845 847 849 850 851 852 853 854 854 854 855 855 855 856 857 858 860 861 863 862 862 862 862 863 863 863 864
794 799 802 807 814 820 823 826 830 835 837 839 840 841 843 844 845 847 848 850 851 852 853 854 855 856 856 856 857 857 858 859 862 864 864 863 864 864 865 865 866 866 866
789 795 800 804 809 816 822 825 829 833 837 839 841 841 842 844 845 846 848 849 851 852 853 854 855 856 857 858 858 859 861 862 864 866 868 867 865 865 866 867 869 869 867
786 792 797 802 808 814 818 824 828 831 835 839 841 842 842 843 844 845 847 848 850 852 853 855 855 856 857 858 860 862 864 866 867 868 870 871 870 868 867 868 869 869 868
788 790 796 800 806 812 818 821 826 830 834 837 840 842 843 844 844 845 847 848 849 851 853 854 855 856 858 860 863 866 867 869 870 871 871 872 872 872 871 869 869 869 868
789 789 795 800 804 809 815 821 825 829 832 835 838 841 842 843 844 845 846 847 849 850 852 854 855 857 859 863 865 868 870 872 874 874 874 874 873 873 873 871 869 869 869
788 790 794 798 802 808 813 819 824 828 829 832 835 838 841 842 843 845 846 847 848 849 850 852 854 858 861 864 867 871 873 875 876 876 877 877 876 875 874 873 873 870 869
784 790 793 796 800 804 809 815 820 824 827 829 832 835 838 839 841 843 844 846 847 848 849 851 853 856 861 864 865 875 878 879 878 878 878 878 878 877 875 875 874 874 873
777 783 789 796 797 801 805 810 816 819 824 826 829 832 836 837 838 841 843 844 845 846 848 850 852 856 861 862 864 868 874 881 882 882 882 881 880 880 878 876 875 873 872
774 777 781 790 791 797 800 805 811 816 821 823 826 829 833 836 837 838 842 843 844 845 847 848 850 853 856 860 862 862 867 866 879 884 884 883 883 882 881 880 878 876 872
770 778 779 784 788 792 795 799 803 807 813 816 820 825 830 833 835 836 838 842 842 842 844 846 848 851 853 857 861 860 861 864 867 879 884 885 884 884 882 881 880 878 874
761 766 772 779 782 786 790 795 799 804 808 812 817 822 829 831 833 834 836 839 842 841 842 845 847 850 853 856 859 861 863 864 865 868 874 883 885 885 883 882 880 878 875
758 762 766 770 775 780 786 790 795 799 805 810 815 820 824 829 830 833 835 837 840 842 842 843 846 850 852 855 857 859 861 862 862 864 870 878 881 884 883 882 881 878 876